Ostrava, Czech Republic

11:37 AM CET on January 16, 2018 (GMT +0100)
Mosnov

Weather History for LKMT - September, 2012

Change the Weather History Date:

Saturday, September 1, 2012

  Actual Average Record
Temperature  
Mean Temperature 59 °F -  
Max Temperature 61 °F 67 °F - ()
Min Temperature 57 °F 48 °F - ()
Degree Days  
Heating Degree Days 6    
Growing Degree Days 9 (Base 50)    
Moisture  
Dew Point 58 °F    
Average Humidity 95    
Maximum Humidity 100    
Minimum Humidity 88    
Precipitation  
Precipitation 0.08 in 0.08 in - ()
Sea Level Pressure  
Sea Level Pressure 30.15 in    
Wind  
Wind Speed 7 mph ()    
Max Wind Speed 12 mph    
Max Gust Speed -    
Visibility 4.8 miles    
Events Rain    
T = Trace of Precipitation, MM = Missing Value Source: Averaged Metar Reports

Daily Weather History Graph

Daily Weather History Graph

Search for Another Location

Airport or City:

Trip Planner

Search our weather history database for the weather conditions in past years. The results will help you decide how hot, cold, wet, or windy it might be!

Date:

Astronomy

Sep. 01, 2012 Rise Set
Actual Time 6:03 AM CEST 7:30 PM CEST
Civil Twilight 5:29 AM CEST 8:03 PM CEST
Nautical Twilight 4:49 AM CEST 8:44 PM CEST
Astronomical Twilight 4:04 AM CEST 9:28 PM CEST
Moon 7:24 PM CEST (9/1) 7:03 AM CEST (9/1)
Length of Visible Light 14h 33m
Length of Day
13h 27m
Full, 99% of the Moon is Illuminated
Sep 1
Full
Sep 8
Last Quarter
Sep 16
New
Sep 22
First Quarter
Sep 30
Full

Hourly Weather History & Observations

Time (CEST) Temp. Dew Point Humidity Pressure Visibility Wind Dir Wind Speed Gust Speed Precip Events Conditions
12:00 AM 60.8 °F 59.0 °F 94% 30.06 in 4.3 mi North 6.9 mph - N/A Rain Light Rain
12:30 AM 59.0 °F 57.2 °F 94% 30.06 in 4.3 mi North 4.6 mph - N/A Rain Light Rain
1:00 AM 59.0 °F 57.2 °F 94% 30.06 in 4.3 mi North 9.2 mph - N/A Rain Light Rain
1:30 AM 59.0 °F 57.2 °F 94% 30.06 in 6.2 mi North 6.9 mph - N/A   Overcast
2:00 AM 59 °F 57 °F 92% 30.07 in 7 mi NNE 8.9 mph - - Rain Light Rain
2:00 AM 59.0 °F 57.2 °F 94% 30.06 in 6.2 mi NNE 8.1 mph - N/A Rain Light Rain
2:30 AM 59.0 °F 57.2 °F 94% 30.06 in 6.2 mi NE 8.1 mph - N/A Rain Light Rain
3:00 AM 59.0 °F 57.2 °F 94% 30.06 in 5.6 mi NE 6.9 mph - N/A Rain Light Rain
3:30 AM 59.0 °F 57.2 °F 94% 30.06 in 5.0 mi North 6.9 mph - N/A Rain Light Rain
4:00 AM 57.2 °F 57.2 °F 100% 30.06 in 6.2 mi North 8.1 mph - N/A   Overcast
4:30 AM 57.2 °F 57.2 °F 100% 30.09 in 6.2 mi North 4.6 mph - N/A   Overcast
5:00 AM 57.2 °F 57.2 °F 100% 30.09 in 6.2 mi NNE 8.1 mph - N/A   Overcast
5:30 AM 57.2 °F 57.2 °F 100% 30.09 in 4.3 mi North 8.1 mph - N/A   Overcast
6:00 AM 57.2 °F 55.4 °F 94% 30.09 in 5.0 mi North 6.9 mph - N/A   Overcast
6:30 AM 57.2 °F 55.4 °F 94% 30.09 in 3.7 mi NNE 9.2 mph - N/A   Overcast
7:00 AM 57.2 °F 57.2 °F 100% 30.09 in 3.7 mi North 9.2 mph - N/A   Overcast
7:30 AM 57.2 °F 57.2 °F 100% 30.09 in 3.1 mi North 5.8 mph - N/A   Overcast
8:00 AM 58 °F 57 °F 95% 30.12 in 2 mi North 6.7 mph - -   Mist
8:00 AM 57.2 °F 57.2 °F 100% 30.12 in 2.5 mi North 4.6 mph - N/A   Overcast
8:30 AM 57.2 °F 57.2 °F 100% 30.12 in 2.5 mi NE 9.2 mph - N/A Rain Light Rain
9:00 AM 59.0 °F 57.2 °F 94% 30.12 in 2.5 mi NE 8.1 mph - N/A Rain Light Rain
9:30 AM 59.0 °F 57.2 °F 94% 30.12 in 1.9 mi ENE 8.1 mph - N/A Rain Light Rain
10:00 AM 59.0 °F 59.0 °F 100% 30.12 in 1.9 mi East 6.9 mph - N/A Rain Rain
10:30 AM 60.8 °F 59.0 °F 94% 30.12 in 1.9 mi North 9.2 mph - N/A   Overcast
11:00 AM 60.8 °F 59.0 °F 94% 30.12 in 2.2 mi NNE 8.1 mph - N/A   Overcast
11:30 AM 60.8 °F 59.0 °F 94% 30.15 in 2.8 mi NNW 6.9 mph - N/A   Overcast
12:00 PM 60.8 °F 59.0 °F 94% 30.15 in 3.1 mi NNW 9.2 mph - N/A   Overcast
12:30 PM 59.0 °F 57.2 °F 94% 30.15 in 3.1 mi NNW 8.1 mph - N/A   Overcast
1:00 PM 60.8 °F 59.0 °F 94% 30.15 in 5.0 mi North 9.2 mph - N/A Rain Light Rain
1:30 PM 60.8 °F 59.0 °F 94% 30.18 in 5.0 mi North 8.1 mph - N/A Rain Light Rain
2:00 PM 61 °F 59 °F 91% 30.19 in 5 mi NNE 11.2 mph - - Rain Light Rain
2:00 PM 60.8 °F 59.0 °F 94% 30.18 in 5.0 mi NNE 11.5 mph - N/A Rain Light Rain
2:30 PM 60.8 °F 59.0 °F 94% 30.18 in 5.0 mi NNE 8.1 mph - N/A Rain Light Rain
3:00 PM 60.8 °F 59.0 °F 94% 30.18 in 5.0 mi NNE 9.2 mph - N/A Rain Light Rain
3:30 PM 60.8 °F 59.0 °F 94% 30.21 in 5.0 mi NNE 8.1 mph - N/A Rain Light Rain
4:00 PM 60.8 °F 59.0 °F 94% 30.21 in 5.0 mi NNE 8.1 mph - N/A   Overcast
4:30 PM 60.8 °F 59.0 °F 94% 30.21 in 5.0 mi North 9.2 mph - N/A   Overcast
5:00 PM 60.8 °F 59.0 °F 94% 30.21 in 5.0 mi NNE 9.2 mph - N/A   Overcast
5:30 PM 60.8 °F 59.0 °F 94% 30.21 in 5.0 mi NNE 8.1 mph - N/A   Overcast
6:00 PM 60.8 °F 59.0 °F 94% 30.21 in 6.2 mi NNE 9.2 mph - N/A   Overcast
6:30 PM 60.8 °F 59.0 °F 94% 30.21 in 6.2 mi NE 5.8 mph - N/A   Overcast
7:00 PM 60.8 °F 59.0 °F 94% 30.21 in 6.2 mi NE 8.1 mph - N/A   Overcast
7:30 PM 60.8 °F 59.0 °F 94% 30.21 in 6.2 mi NE 6.9 mph - N/A   Overcast
8:00 PM 60.8 °F 59.0 °F 94% 30.21 in 6.2 mi NNE 8.1 mph - N/A   Overcast
8:10 PM 61 °F 59 °F 89% 30.22 in 6 mi NNE 8.9 mph - -   Partly Cloudy
8:30 PM 60.8 °F 59.0 °F 94% 30.21 in 6.2 mi NNE 8.1 mph - N/A   Overcast
9:00 PM 60.8 °F 59.0 °F 94% 30.24 in 6.2 mi NNE 8.1 mph - N/A   Overcast
9:30 PM 60.8 °F 59.0 °F 94% 30.24 in 6.2 mi North 5.8 mph - N/A   Overcast
10:00 PM 60.8 °F 59.0 °F 94% 30.24 in 6.2 mi NNE 8.1 mph - N/A   Light Drizzle
10:30 PM 60.8 °F 59.0 °F 94% 30.24 in 6.2 mi NNE 6.9 mph - N/A   Light Drizzle
11:00 PM 60.8 °F 57.2 °F 88% 30.24 in 6.2 mi North 8.1 mph - N/A   Light Drizzle
11:30 PM 60.8 °F 57.2 °F 88% 30.24 in 6.2 mi NNE 8.1 mph - N/A   Light Drizzle